Weather in Edmonton

Canada     53°31′50″N   113°30′42″W
temp.,
°C
wind,
m/s
gust,
m/s
humid.,
%
clouds,
%
prec.,
mm/h
press.,
hPa
HPBL,
m
21 january, thu
thu2123:00−7n4129096 0.1 1020624
02:00−10nw2392100 0.0 102387
05:00−10w119260 0.0 102421
08:00−8wsw249573 0.0 1024103
11:00−6wnw489184 0.1 1024394
14:00−4nw488899 0.3 1023743
17:00−7nnw249399 0.3 102499
20:00−10nw129046 0.0 102621
22 january, fri
fri2223:00−11s118823 0.0 102521
02:00−11s239089 0.0 102464
05:00−10ssw239194 0.0 102180
08:00−8wsw2491100 0.1 1021166
11:00−6wnw4994100 0.6 1019490
14:00−5nw51085100 0.3 1018941
17:00−8nw249097 0.3 101890
20:00−9nnw4109570 0.1 1020465
23 january, sat
sat2323:00−12nne469485 0.7 1022329
02:00−16nne3593100 0.1 1025310
05:00−20ne239498 0.2 1026125
08:00−22ese129445 0.0 102739
11:00−20se238927 0.0 1026171
14:00−17se238986 0.0 1024252
17:00−18ese349393 0.0 1023214
20:00−18se3596100 0.3 1023231
24 january, sun
sun2423:00−18se3596100 0.8 1021228
02:00−18ese3596100 0.3 1020222
05:00−18se3596100 0.5 1020234
08:00−18se369597 0.1 1019231
11:00−17se369392 0.1 1019290
14:00−16se369293 0.0 1018318
17:00−18se369493 0.1 1020260
20:00−18se3794100 0.1 1021315
25 january, mon
mon2523:00−18se479599 0.2 1022293
02:00−19se369588 0.1 1022256
05:00−21se369494 0.1 1024238
08:00−21se3694100 0.0 1025233
11:00−20se369398 0.0 1026256
14:00−18se349282 0.0 1024300
17:00−21se369573 0.0 1025153
20:00−22se37950 0.0 1025187